Date_and_time,latitude,longitude,wind_speed,RelWindDirFrom,WindDirFrom,air_pressure,air_temperature,relative_humidity,Temp,platform_speed_wrt_ground,air_pressure_at_mean_sea_level,platform_orientation
2018-10-06 23:40,53.3328683333333,-98.32964,23.1,26.2,298,993.96,5.6,60,8.80,10.9,1021.44,287.3
2018-10-06 23:50,53.3476683333333,-98.3737466666667,21.1,24.0,300,994.35,5.5,58,8.78,10.9,1021.85,287.3
2018-10-07 00:00,53.3619466666667,-98.4185166666667,20.8,23.2,300,994.58,5.5,60,8.76,10.9,1022.08,298.9
2018-10-07 00:00,53.3622816666667,-98.41956,20.8,20.8,300,994.56,5.3,60,8.75,0.3,1022.07,299.0
2018-10-07 00:10,53.3766333333333,-98.464265,21.6,24.5,307,994.79,5.2,61,8.75,10.9,1022.30,299.0
2018-10-07 00:20,53.381975,-98.4768966666667,14.0,23.4,308,995.55,5.2,60,8.74,3.3,1023.08,299.0
2018-10-07 00:30,53.3817816666667,-98.476945,9.9,13.0,313,995.90,5.1,59,8.73,0.1,1023.44,299.0
2018-10-07 00:40,53.381765,-98.476945,9.6,12.9,320,996.01,5.0,60,8.73,0.0,1023.55,299.0
2018-10-07 00:50,53.3816433333333,-98.4771066666667,9.3,12.7,330,996.10,4.9,61,8.73,0.1,1023.66,299.0
2018-10-07 01:00,53.381695,-98.4769916666667,8.4,12.3,336,996.18,4.7,61,8.73,0.0,1023.75,299.1
2018-10-07 01:10,53.3816383333333,-98.4771166666667,8.6,11.0,340,996.22,4.6,61,8.73,0.0,1023.79,299.1
2018-10-07 01:20,53.3816216666667,-98.4771983333333,8.6,12.2,349,996.27,4.4,62,8.72,0.0,1023.86,299.1
2018-10-07 01:30,53.3816116666667,-98.4771883333333,10.0,12.4,344,996.20,4.3,64,8.72,0.0,1023.79,299.1
2018-10-07 01:40,53.381605,-98.477155,10.2,13.7,354,996.30,4.2,65,8.72,0.0,1023.90,299.1
2018-10-07 01:50,53.3816083333333,-98.47718,8.7,11.9,350,996.38,4.2,64,8.71,0.0,1024.00,299.1
2018-10-07 02:00,53.38156,-98.477215,10.6,14.5,352,996.29,4.1,66,8.71,0.0,1023.92,299.3
2018-10-07 02:10,53.3815233333333,-98.4773716666667,12.2,14.5,356,996.32,3.9,68,8.71,0.0,1023.95,299.3
2018-10-07 02:20,53.3815183333333,-98.4773833333333,11.4,14.8,358,996.47,3.8,67,8.72,0.0,1024.12,299.3
2018-10-07 02:30,53.38154,-98.4773233333333,10.3,13.6,360,996.62,3.7,67,8.72,0.0,1024.28,299.3
2018-10-07 02:40,53.3815633333333,-98.47719,9.9,12.6,350,996.68,3.7,68,8.72,0.0,1024.35,299.3
2018-10-07 02:50,53.3815683333333,-98.477105,10.9,13.3,345,996.72,3.6,68,8.72,0.0,1024.41,299.3
2018-10-07 03:00,53.381565,-98.4772,10.6,12.9,342,996.70,3.3,67,8.70,0.0,1024.41,299.3
2018-10-07 03:10,53.38153,-98.4773,10.4,13.8,349,996.79,3.3,68,8.71,0.0,1024.51,299.3
2018-10-07 03:20,53.3815383333333,-98.4773016666667,9.2,12.0,347,996.90,3.2,67,8.71,0.0,1024.63,299.3
2018-10-07 03:30,53.3815333333333,-98.4772616666667,8.9,11.6,344,997.00,3.2,68,8.71,0.0,1024.74,299.3
2018-10-07 03:40,53.3815616666667,-98.47726,8.3,11.0,344,997.18,3.1,68,8.71,0.0,1024.93,299.3
2018-10-07 03:50,53.38157,-98.47723,7.3,10.1,341,997.36,2.9,67,8.71,0.0,1025.13,299.3
2018-10-07 04:00,53.38161,-98.4771216666667,5.8,8.2,339,997.43,2.9,67,8.71,0.0,1025.22,221.8
2018-10-07 04:10,53.381565,-98.4772133333333,6.1,8.5,336,997.45,2.9,66,8.70,0.0,1025.24,221.8
2018-10-07 04:20,53.3815983333333,-98.4771783333333,5.5,7.6,332,997.48,2.9,67,8.70,0.0,1025.28,221.8
2018-10-07 04:30,53.3816066666667,-98.477145,5.1,7.8,339,997.43,2.9,66,8.70,0.0,1025.22,221.8
2018-10-07 04:40,53.3816066666667,-98.4771916666667,5.7,7.6,341,997.48,2.9,66,8.70,0.0,1025.28,221.8
2018-10-07 04:50,53.3815766666667,-98.47725,5.9,8.0,340,997.50,2.9,68,8.70,0.0,1025.31,221.8
2018-10-07 05:00,53.381575,-98.47719,5.9,7.8,331,997.62,2.9,67,8.70,0.0,1025.44,36.1
2018-10-07 05:10,53.381615,-98.4771933333333,5.5,8.2,330,997.68,2.9,66,8.70,0.0,1025.50,36.1
2018-10-07 05:20,53.3816266666667,-98.4772383333333,5.7,8.0,345,997.77,2.9,67,8.69,0.0,1025.60,36.1
2018-10-07 05:30,53.3815883333333,-98.4771866666667,5.2,7.1,347,997.83,2.9,67,8.70,0.0,1025.67,36.1
2018-10-07 05:40,53.3816183333333,-98.4771933333333,4.3,6.4,328,997.85,2.8,66,8.70,0.0,1025.70,36.1
2018-10-07 05:50,53.3815716666667,-98.4773066666667,4.8,6.7,344,997.84,2.9,66,8.70,0.0,1025.69,36.1
2018-10-07 06:00,53.3815933333333,-98.4772533333333,4.1,5.9,353,997.90,2.9,67,8.69,0.0,1025.75,312.3
2018-10-07 06:10,53.38159,-98.4772416666667,4.2,5.9,343,997.91,2.9,67,8.69,0.0,1025.75,312.3
2018-10-07 06:20,53.3815916666667,-98.4772866666667,5.1,6.9,332,997.90,2.9,66,8.69,0.0,1025.74,312.3
2018-10-07 06:30,53.3816166666667,-98.4772366666667,5.2,7.1,342,997.96,2.9,66,8.69,0.0,1025.81,312.3
2018-10-07 06:40,53.3815733333333,-98.4773466666667,5.1,7.1,346,998.01,3.0,67,8.70,0.0,1025.85,312.3
2018-10-07 06:50,53.38157,-98.4773633333333,5.5,8.3,353,998.04,3.0,66,8.69,0.0,1025.88,312.3
2018-10-07 07:00,53.3815816666667,-98.4774133333333,5.2,7.2,359,997.95,3.0,67,8.69,0.0,1025.79,258.9
2018-10-07 07:10,53.3815766666667,-98.4773683333333,5.0,7.8,359,997.92,3.0,67,8.69,0.0,1025.77,258.9
2018-10-07 07:20,53.381575,-98.477365,4.6,6.1,352,997.99,3.0,65,8.69,0.0,1025.83,258.9
2018-10-07 07:30,53.381605,-98.47727,4.0,5.8,356,998.07,3.0,66,8.69,0.0,1025.92,258.9
2018-10-07 07:40,53.3816333333333,-98.4772666666667,4.3,5.9,356,998.17,3.1,66,8.69,0.0,1026.02,258.9
2018-10-07 07:50,53.3816216666667,-98.4773566666667,3.0,4.6,1,998.26,3.1,65,8.69,0.0,1026.11,258.9
2018-10-07 08:00,53.3816116666667,-98.47732,3.5,5.0,4,998.35,3.1,65,8.69,0.0,1026.19,294.0
2018-10-07 08:10,53.38162,-98.4773466666667,2.7,4.1,18,998.41,3.1,64,8.69,0.0,1026.25,294.0
2018-10-07 08:20,53.3816216666667,-98.477345,3.5,4.7,0,998.52,3.2,65,8.68,0.0,1026.37,294.0
2018-10-07 08:30,53.3816233333333,-98.4774216666667,3.5,5.8,9,998.55,3.2,65,8.68,0.0,1026.40,294.0
2018-10-07 08:40,53.3815883333333,-98.4773933333333,4.1,5.6,4,998.58,3.2,66,8.68,0.0,1026.42,294.0
2018-10-07 08:50,53.3816066666667,-98.4774083333333,3.4,5.3,22,998.63,3.3,66,8.67,0.0,1026.48,294.0
2018-10-07 09:00,53.3816516666667,-98.47753,2.7,4.9,53,998.68,3.3,65,8.67,0.0,1026.52,289.3
2018-10-07 09:10,53.3816616666667,-98.4775866666667,2.6,3.9,59,998.70,3.3,65,8.67,0.0,1026.55,289.3
2018-10-07 09:20,53.3817533333333,-98.477705,3.4,4.4,73,998.71,3.3,66,8.67,0.0,1026.55,289.3
2018-10-07 09:30,53.3816316666667,-98.4775933333333,3.0,5.3,43,998.78,3.3,66,8.67,0.1,1026.62,289.3
2018-10-07 09:40,53.3816933333333,-98.4777033333333,4.3,6.3,63,998.79,3.4,67,8.67,0.0,1026.62,289.3
2018-10-07 09:50,53.3817383333333,-98.4777183333333,4.5,6.1,64,998.76,3.4,67,8.67,0.0,1026.60,289.3
2018-10-07 10:00,53.38164,-98.4776583333333,5.3,7.0,54,998.77,3.4,67,8.67,0.0,1026.60,295.6
2018-10-07 10:10,53.3818183333333,-98.47779,4.8,7.6,86,998.79,3.5,67,8.67,0.1,1026.62,295.6
2018-10-07 10:20,53.3817416666667,-98.47779,5.6,7.3,69,998.74,3.4,68,8.67,0.0,1026.57,295.6
2018-10-07 10:30,53.3817916666667,-98.4777983333333,5.2,9.3,78,998.74,3.5,68,8.67,0.0,1026.56,295.6
2018-10-07 10:40,53.3817833333333,-98.47781,6.4,8.9,79,998.68,3.5,69,8.67,0.0,1026.50,295.6
2018-10-07 10:50,53.381845,-98.47786,7.2,9.3,82,998.62,3.5,69,8.67,0.0,1026.44,295.6
2018-10-07 11:00,53.38187,-98.47786,6.8,9.0,89,998.70,3.6,70,8.67,0.0,1026.51,308.5
2018-10-07 11:10,53.38184,-98.4778716666667,7.0,9.7,96,998.77,3.6,70,8.67,0.0,1026.59,308.5
2018-10-07 11:20,53.38182,-98.4778816666667,6.7,8.8,92,998.82,3.7,70,8.67,0.0,1026.63,308.5
2018-10-07 11:30,53.3818783333333,-98.4779,7.6,9.4,94,998.81,3.8,71,8.67,0.0,1026.61,308.5
2018-10-07 11:40,53.3818733333333,-98.4778916666667,7.9,10.5,98,998.75,3.9,71,8.67,0.0,1026.54,308.5
2018-10-07 11:50,53.3819166666667,-98.47792,7.9,10.6,100,998.71,3.9,72,8.67,0.0,1026.50,308.5
2018-10-07 12:00,53.3818983333333,-98.47794,8.9,10.5,107,998.62,4.0,73,8.67,0.0,1026.40,313.9
2018-10-07 12:10,53.381915,-98.4779683333333,8.4,11.1,106,998.63,4.1,74,8.66,0.0,1026.41,313.9
2018-10-07 12:20,53.3820583333333,-98.4778866666667,8.2,11.6,117,998.70,4.2,75,8.66,0.1,1026.47,313.9
2018-10-07 12:30,53.3819633333333,-98.478035,9.7,12.8,113,998.58,4.2,77,8.66,0.0,1026.35,313.9
2018-10-07 12:40,53.38206,-98.477935,9.2,12.0,134,998.59,4.3,78,8.66,0.0,1026.35,313.9
2018-10-07 12:50,53.3810033333333,-98.4791983333333,9.8,14.7,133,998.52,4.4,78,8.65,0.5,1026.27,313.9
2018-10-07 13:00,53.383005,-98.483495,10.2,14.1,143,998.42,4.7,79,8.64,1.2,1026.15,291.3
2018-10-07 13:10,53.38306,-98.4828566666667,10.5,13.5,151,998.41,4.7,77,8.64,0.1,1026.14,291.3
2018-10-07 13:20,53.3835383333333,-98.4826633333333,11.1,14.4,143,998.34,4.7,79,8.64,0.2,1026.06,291.3
2018-10-07 13:30,53.3860883333333,-98.47564,13.0,16.2,131,998.38,4.8,80,8.63,1.8,1026.10,291.3
2018-10-07 13:40,53.3875066666667,-98.4609466666667,14.0,17.4,131,998.30,4.7,79,8.63,3.2,1026.01,291.3
2018-10-07 13:50,53.3888166666667,-98.46349,12.0,15.5,132,998.45,4.9,80,8.63,0.7,1026.15,291.3
2018-10-07 14:00,53.38777,-98.4607683333333,13.3,20.4,128,998.27,4.9,82,8.62,0.7,1025.97,60.0
2018-10-07 14:10,53.3877833333333,-98.4610633333333,12.3,16.5,120,998.41,4.6,84,8.63,0.1,1026.13,60.0
2018-10-07 14:20,53.3869883333333,-98.4610066666667,13.2,16.9,131,998.18,4.7,85,8.63,0.3,1025.88,60.0
2018-10-07 14:30,53.38874,-98.4622883333333,12.6,16.1,144,998.32,5.0,84,8.63,0.7,1026.00,60.0
2018-10-07 14:40,53.3907733333333,-98.463745,13.0,17.6,140,998.22,5.1,85,8.63,0.8,1025.89,60.0
2018-10-07 14:50,53.392525,-98.4669383333333,13.1,16.5,138,998.29,5.3,86,8.63,0.9,1025.93,60.0
2018-10-07 15:00,53.3910483333333,-98.4591733333333,13.3,17.3,144,998.10,5.4,87,8.63,1.8,1025.73,50.7
2018-10-07 15:10,53.3884666666667,-98.4467533333333,14.5,17.3,164,998.21,5.5,87,8.63,2.8,1025.84,50.7
2018-10-07 15:20,53.3859716666667,-98.4339916666667,14.1,16.1,169,998.28,5.4,88,8.63,2.9,1025.92,50.7
2018-10-07 15:30,53.38346,-98.4212383333333,14.2,16.1,171,998.25,5.3,90,8.63,2.9,1025.90,50.7
2018-10-07 15:40,53.3789633333333,-98.40562,15.4,17.9,173,998.18,5.1,92,8.63,3.7,1025.82,50.7
2018-10-07 15:50,53.3747233333333,-98.3869216666667,15.1,19.8,170,998.13,5.1,92,8.62,4.3,1025.77,50.7
2018-10-07 16:00,53.3749716666667,-98.387055,13.1,16.4,184,998.17,5.1,92,8.63,0.1,1025.83,97.9
2018-10-07 16:10,53.3749983333333,-98.3869566666667,13.5,16.1,186,998.25,5.3,91,8.63,0.0,1025.89,97.9
2018-10-07 16:20,53.3749683333333,-98.3870716666667,12.9,16.0,186,998.27,5.2,90,8.63,0.0,1025.90,97.9
2018-10-07 16:30,53.3749783333333,-98.38703,12.3,14.9,185,998.26,5.3,91,8.63,0.0,1025.88,97.9
2018-10-07 16:40,53.3749716666667,-98.3870883333333,11.9,14.4,190,998.29,5.3,91,8.63,0.0,1025.90,97.9
2018-10-07 16:50,53.374985,-98.3870316666667,11.9,14.3,194,998.29,5.5,90,8.64,0.0,1025.88,97.9
2018-10-07 17:00,53.3749866666667,-98.387045,10.9,13.6,196,998.32,5.6,88,8.65,0.0,1025.92,106.2
2018-10-07 17:10,53.374965,-98.386985,10.5,14.0,202,998.32,5.7,87,8.65,0.0,1025.91,106.2
2018-10-07 17:20,53.3749783333333,-98.38693,10.7,12.9,201,998.32,5.8,86,8.66,0.0,1025.91,106.2
2018-10-07 17:30,53.37499,-98.3869616666667,11.0,13.4,203,998.29,6.0,85,8.65,0.0,1025.88,106.2
2018-10-07 17:40,53.3749683333333,-98.38705,11.2,13.9,198,998.25,6.1,84,8.66,0.0,1025.83,106.2
2018-10-07 17:50,53.37499,-98.386955,11.4,13.3,198,998.23,6.2,84,8.67,0.0,1025.80,106.2
2018-10-07 18:00,53.3757,-98.3759983333333,10.2,15.1,182,998.28,6.4,84,8.67,2.4,1025.84,107.2
2018-10-07 18:10,53.37947,-98.3251366666667,15.7,18.3,138,998.17,6.2,90,8.66,11.0,1025.74,107.2
2018-10-07 18:20,53.3830516666667,-98.2743283333333,17.0,19.8,146,998.09,6.0,91,8.66,11.0,1025.66,107.2
2018-10-07 18:30,53.38688,-98.2235666666667,18.5,21.9,146,998.01,6.0,91,8.64,11.0,1025.58,107.2
2018-10-07 18:40,53.390325,-98.17294,18.9,22.4,147,997.97,6.1,91,8.63,10.9,1025.53,107.2
2018-10-07 18:50,53.3946433333333,-98.1223333333333,20.1,23.9,147,997.82,6.2,90,8.61,11.0,1025.37,107.2
2018-10-07 19:00,53.3991316666667,-98.0719166666667,21.4,24.6,147,997.75,6.3,88,8.61,10.9,1025.28,82.6
2018-10-07 19:10,53.4038083333333,-98.021455,21.9,24.8,147,997.77,6.5,85,8.57,11.0,1025.29,82.6
2018-10-07 19:20,53.407935,-97.9719866666667,21.1,24.6,150,997.84,6.4,83,8.49,10.7,1025.35,82.6
2018-10-07 19:30,53.4115,-97.9522933333333,17.4,22.0,169,998.05,6.5,84,8.36,4.4,1025.56,82.6
2018-10-07 19:40,53.4122033333333,-97.9095216666667,21.2,24.9,154,997.74,6.4,84,8.27,9.2,1025.24,82.6
2018-10-07 19:50,53.412475,-97.9093516666667,17.6,20.5,183,997.67,6.2,81,8.19,0.1,1025.17,82.6
2018-10-07 20:00,53.412645,-97.9094266666667,17.1,19.9,187,997.69,6.3,79,8.17,0.1,1025.20,82.3
2018-10-07 20:10,53.4167083333333,-97.9101616666667,15.5,19.2,189,997.99,6.3,78,8.16,1.5,1025.51,82.3
2018-10-07 20:20,53.4253533333333,-97.9146333333333,14.3,16.8,182,998.26,6.3,78,8.18,3.3,1025.78,82.3
2018-10-07 20:30,53.4347516666667,-97.9169183333333,14.0,17.7,178,998.18,6.5,78,8.21,3.4,1025.70,82.3
2018-10-07 20:40,53.44428,-97.9191866666667,15.4,18.9,172,997.96,6.7,75,8.24,3.5,1025.45,82.3
2018-10-07 20:50,53.4692016666667,-97.9237066666667,9.1,17.2,183,997.95,7.0,73,8.22,9.0,1025.41,82.3
2018-10-07 21:00,53.4998933333333,-97.933335,7.0,10.8,187,997.87,7.2,74,8.25,11.2,1025.32,64.6
2018-10-07 21:10,53.5305983333333,-97.9421383333333,7.3,11.4,187,997.83,7.8,71,8.30,11.2,1025.25,64.6
2018-10-07 21:20,53.561235,-97.9508583333333,6.5,10.3,192,997.75,7.6,73,8.03,11.2,1025.18,64.6
2018-10-07 21:30,53.5897516666667,-97.9583983333333,8.7,14.2,179,997.59,8.5,69,7.96,10.4,1024.98,64.6
2018-10-07 21:40,53.61528,-97.9663366666667,10.7,18.9,180,997.31,7.9,72,7.78,9.3,1024.72,64.6
2018-10-07 21:50,53.61692,-97.9674733333333,19.4,22.0,177,996.59,6.8,78,7.61,0.6,1024.03,64.6
2018-10-07 22:00,53.6176016666667,-97.9674833333333,20.0,23.8,177,996.34,6.6,78,7.51,0.2,1023.78,15.8
2018-10-07 22:10,53.61789,-97.967685,20.6,23.7,176,996.35,6.7,78,7.47,0.1,1023.79,15.8
2018-10-07 22:20,53.618055,-97.9676383333333,19.9,23.3,175,996.41,6.7,77,7.46,0.1,1023.84,15.8
2018-10-07 22:30,53.6184316666667,-97.9678466666667,18.5,21.7,174,996.51,6.7,81,7.45,0.1,1023.93,15.8
2018-10-07 22:40,53.6184316666667,-97.9677833333333,19.7,22.8,177,996.36,6.7,80,7.43,0.0,1023.76,15.8
2018-10-07 22:50,53.61842,-97.9678516666667,19.1,22.5,178,996.36,6.7,79,7.43,0.0,1023.76,15.8
2018-10-07 23:00,53.6184166666667,-97.9677666666667,19.2,22.5,177,996.36,6.7,79,7.43,0.0,1023.73,350.5
2018-10-07 23:10,53.6184283333333,-97.9679333333333,18.3,20.8,176,996.42,6.7,79,7.45,0.0,1023.80,350.5
2018-10-07 23:20,53.6184466666667,-97.9678866666667,17.7,21.2,179,996.46,6.7,79,7.45,0.0,1023.79,350.5
2018-10-07 23:30,53.6184166666667,-97.9679116666667,18.4,21.9,179,996.40,6.7,77,7.46,0.0,1023.76,350.5
2018-10-07 23:40,53.61845,-97.9678616666667,17.0,20.5,182,996.61,6.8,77,7.47,0.0,1024.03,350.5
2018-10-07 23:50,53.6184283333333,-97.967745,15.9,18.6,179,996.64,6.7,79,7.49,0.0,1024.07,350.5
